SL-16 DEB

基本信息
目录编号:
31796
目录名称:
SL-16 DEB
国际标识:
2007-029E
轨道中心:
EARTH
物体状态:
在轨
发射日期:
2007-06-29 UTC
轨道信息
数据来源: 国际轨道数据
星历时间: 2026-07-14T00:59:13+0800
半长轴: 7381.506km
偏心率: 0.0215449
轨道倾角: 71.045°
近地点辐角: 337.121°
升交点赤经: 310.841°
平近点角: 133.369°
近地点: 844.335km
远地点: 1162.403km
周期: 105.191分钟
每日圈数: 13.68943
详细信息
发射场:
TTMTR
轨道高度:
LEO
数据来源:
AOE Integration Group
参考系:
TEME
时间系统:
UTC
历元类型:
SGP4
2D轨道图
3D轨道图
轨道高度分析图
轨道倾角分析图
轨道综合分析图
查看轨道综合分析图